Wind_Speed
19 19 20 20 20 20 20 20 20 21 20 20 21 22 23 23 23 23 24 24 24 25 25 24 24 24 24 25 25 25 24 24 25 25 25 25 26 26 26 26 27 27 28
20 20 20 20 20 19 19 20 21 21 21 21 22 23 23 24 24 24 25 25 24 24 24 24 24 23 23 23 23 23 23 23 23 23 23 24 25 25 26 26 27 27 28
19 20 20 21 20 20 20 21 21 21 22 23 24 23 23 24 24 24 24 24 24 24 24 23 22 23 23 23 23 23 24 24 24 24 24 24 24 25 25 26 26 27 27
20 20 21 21 20 21 21 21 21 22 23 23 23 23 23 23 24 24 24 24 24 23 23 23 23 23 23 23 24 24 24 25 25 25 24 24 24 24 23 25 26 27 27
20 21 21 20 20 21 21 21 21 23 24 24 23 23 24 24 24 25 25 24 24 24 24 24 23 23 23 23 23 24 24 24 23 24 24 24 24 24 24 25 26 27 28
20 20 20 20 20 21 21 22 22 23 24 25 24 25 24 24 24 24 24 23 24 24 24 24 24 24 24 24 24 23 23 23 23 24 25 25 24 24 25 25 26 27 27
20 20 20 20 20 20 21 21 22 22 23 24 24 25 25 24 24 24 22 22 23 23 24 24 25 25 25 25 24 23 23 23 23 24 25 25 25 25 25 26 26 26 25
20 20 19 19 20 20 21 21 21 22 23 24 25 24 24 23 23 23 22 21 22 23 24 25 25 25 25 24 23 24 23 24 24 24 24 24 24 25 24 25 25 25 25
20 20 19 19 20 20 20 21 22 22 23 24 24 24 23 22 22 22 22 21 21 22 24 24 24 24 23 22 22 22 23 24 24 24 24 25 25 24 24 24 24 24 24
18 19 19 19 20 20 20 21 22 22 23 23 23 23 23 22 22 22 22 21 21 22 22 24 23 22 22 21 22 22 23 24 24 24 24 24 24 24 23 23 23 23 24
18 18 18 19 19 20 21 21 21 21 21 21 22 22 21 21 21 21 21 21 21 21 22 22 21 21 22 22 21 22 22 23 23 23 24 23 24 23 23 23 23 23 23
19 18 18 18 19 19 20 20 20 20 20 20 20 20 19 19 19 20 19 20 20 21 22 21 21 21 21 21 21 21 23 23 22 22 22 22 23 23 23 23 23 23 23
17 18 18 18 18 18 18 18 18 18 19 19 19 18 18 18 18 18 18 18 19 20 21 21 20 20 20 20 21 21 22 22 22 22 22 21 22 22 23 23 22 23 23
16 16 17 16 16 16 16 16 17 17 18 18 18 18 17 17 17 17 17 17 17 18 19 20 20 20 20 20 20 21 21 21 21 21 20 20 21 22 22 22 22 22 22
14 14 14 14 15 15 15 16 16 17 17 17 17 17 16 16 17 17 17 16 16 18 19 19 20 20 20 20 20 20 20 19 19 19 19 19 20 20 21 21 21 21 22
13 13 13 14 14 14 15 16 15 16 16 16 16 16 15 15 15 15 15 15 16 17 18 19 19 19 19 20 20 20 20 19 19 19 19 20 20 21 21 21 21 21 22
13 13 13 14 14 14 15 15 15 15 15 15 15 15 14 15 14 14 14 15 16 17 17 18 19 19 19 20 20 21 20 20 20 20 20 21 21 21 21 20 20 21 21
13 13 13 13 13 13 14 14 14 14 14 14 13 13 14 14 14 14 14 15 16 17 17 18 18 19 19 20 20 20 20 20 20 20 21 21 21 21 20 20 21 21 21
13 13 13 13 13 13 14 14 13 13 12 12 13 13 14 14 13 13 14 14 15 16 17 18 18 18 19 20 20 20 21 20 20 20 20 20 20 20 20 20 20 20 20
12 12 12 13 13 12 13 12 11 11 11 12 12 13 13 12 12 13 12 13 14 16 17 17 18 19 19 19 20 20 20 21 21 21 20 20 20 21 20 20 20 21 20
10 11 11 11 11 10 10 10 10 10 11 11 11 11 11 11 11 12 12 13 15 16 17 17 17 18 19 19 21 21 21 21 21 20 20 20 21 21 21 21 21 21 20
9 9 9 9 9 9 9 8 9 9 9 10 10 10 10 11 11 12 12 14 15 16 16 16 17 18 19 20 20 21 22 22 21 21 21 21 20 20 20 20 20 20 20
8 8 9 9 8 8 8 8 8 8 9 9 10 10 11 11 11 12 13 14 15 16 16 16 17 18 19 20 21 21 22 22 21 21 21 20 20 20 20 20 20 20 20
8 8 9 8 8 8 8 8 8 8 9 10 10 10 11 11 11 12 13 14 15 16 16 16 17 18 19 20 21 21 21 21 21 21 21 21 21 21 21 21 21 21 20
8 8 8 8 8 8 8 8 8 9 9 10 11 11 11 11 12 13 14 15 15 15 16 17 18 19 20 20 21 21 21 21 22 22 21 21 22 22 22 22 21 21 21
8 8 7 7 7 7 6 7 7 8 9 10 11 11 10 11 12 13 14 15 15 16 17 17 18 18 20 21 21 22 22 23 23 24 23 22 23 23 23 22 22 22 21
Wind_Direction
278 276 275 273 273 272 274 276 278 283 287 291 291 290 288 288 291 291 290 292 294 294 293 293 292 291 291 291 291 290 290 291 289 288 287 285 283 280 278 277 276 274 271
278 275 276 276 276 275 274 276 280 283 288 291 292 292 290 290 292 292 291 292 294 295 295 295 293 292 294 295 293 291 292 293 291 291 289 287 285 284 279 277 276 274 273
278 277 277 279 277 274 275 278 280 284 287 289 290 292 293 291 291 291 291 291 292 292 295 297 297 296 296 294 293 293 292 292 291 291 290 287 285 285 282 280 278 275 274
280 280 280 279 275 275 276 279 282 284 286 288 290 293 294 292 291 291 291 289 291 294 296 296 296 296 295 293 292 292 292 291 291 290 290 288 286 285 283 281 279 277 276
279 280 280 277 274 275 278 281 282 285 287 291 293 293 295 294 292 290 288 289 292 294 296 295 296 296 295 294 294 294 293 292 292 291 290 289 286 286 284 283 281 279 278
279 281 279 276 275 277 279 281 284 287 289 292 294 295 294 293 292 291 289 290 292 292 293 295 296 296 295 295 294 295 294 293 293 292 292 289 286 286 284 283 284 281 279
278 281 281 278 276 278 281 283 286 289 291 292 294 295 295 292 292 293 292 292 292 292 293 294 295 296 296 296 295 295 295 294 294 293 292 292 291 288 286 285 285 283 281
279 280 280 279 279 280 283 285 288 290 292 293 294 295 296 297 295 294 293 292 292 294 295 296 296 296 297 297 296 295 295 295 295 295 295 294 292 292 289 286 285 283 280
280 278 277 280 281 281 283 284 287 290 293 294 294 294 296 297 299 298 297 295 295 296 297 300 302 299 300 298 298 298 297 297 297 297 297 295 294 292 290 289 287 286 283
279 277 277 278 279 280 282 285 288 290 292 295 296 298 298 298 300 300 299 300 300 301 302 302 304 305 302 300 300 300 299 299 298 296 296 296 294 293 291 290 289 288 286
279 280 278 278 278 280 282 286 287 290 293 295 296 298 300 301 300 301 302 302 304 305 306 306 306 305 304 301 301 302 303 302 301 299 297 295 293 292 292 290 289 287 286
281 280 279 278 279 281 282 286 288 291 295 297 296 298 300 302 302 301 302 302 304 307 309 307 307 306 306 303 302 303 304 303 302 301 300 298 296 294 293 292 291 289 287
285 281 279 279 279 280 284 288 290 291 295 298 298 299 299 301 303 304 304 305 307 307 311 312 311 310 310 307 305 305 305 305 304 303 302 300 297 296 296 295 292 290 288
286 285 284 279 280 283 286 289 291 291 295 299 301 301 302 303 305 306 308 310 311 311 314 316 316 316 315 313 311 311 310 308 307 306 305 302 300 298 298 297 295 293 291
289 288 287 285 283 284 285 288 291 293 297 301 302 303 303 304 306 307 310 309 313 316 317 316 317 318 317 316 316 315 315 313 310 309 309 307 304 301 299 297 296 294 294
286 288 286 286 285 285 286 288 293 296 299 302 303 305 306 308 310 311 310 312 314 318 320 320 320 320 320 319 319 320 318 314 311 309 308 308 307 304 300 297 297 297 295
283 288 287 287 285 285 286 289 293 298 303 305 306 307 308 311 311 312 311 313 315 318 321 321 322 322 323 321 319 321 319 315 312 310 308 308 307 305 303 300 299 298 297
283 286 288 288 289 291 290 292 294 298 303 307 308 309 310 313 312 312 313 313 316 320 322 322 322 323 325 324 322 323 322 318 315 312 310 310 309 307 306 304 303 302 300
285 289 289 290 290 294 294 292 293 297 302 305 308 310 311 312 313 314 314 315 319 324 326 325 324 324 325 326 326 325 325 322 321 317 314 312 312 310 308 307 307 306 304
291 294 294 293 294 295 294 294 294 297 302 306 309 312 313 315 316 318 319 321 323 326 328 326 324 323 325 326 325 324 324 325 323 321 318 314 312 310 308 307 306 305 305
293 295 294 297 299 297 296 297 298 300 303 308 312 315 317 318 321 324 325 327 329 328 329 328 328 327 328 328 328 327 326 326 325 323 321 317 314 311 309 307 307 307 305
290 293 295 298 300 301 300 297 299 303 306 310 315 319 321 322 325 329 330 330 330 330 329 331 331 330 331 331 331 332 331 328 326 324 323 321 318 315 312 310 310 309 307
289 292 294 298 297 298 299 298 301 304 307 312 317 322 326 328 329 329 330 331 331 331 331 331 331 331 334 334 333 334 332 331 330 328 326 324 324 321 318 315 313 312 309
287 290 292 295 297 296 297 298 301 302 307 311 317 322 326 327 329 330 330 330 332 333 333 330 330 332 333 334 336 336 337 337 336 334 331 329 328 326 323 320 318 316 314
285 288 289 292 294 295 297 301 302 306 309 311 315 318 321 324 327 330 330 331 332 332 333 332 330 332 334 334 337 339 339 339 338 337 334 332 330 328 325 322 318 317 314
281 283 285 292 298 298 298 301 304 309 309 312 315 315 318 324 329 332 333 334 335 335 334 332 332 334 336 337 338 340 338 338 338 338 336 334 332 330 328 325 321 318 315
Height
5844 5843 5842 5842 5841 5841 5840 5839 5837 5835 5833 5832 5831 5829 5827 5825 5823 5820 5818 5816 5813 5811 5808 5805 5802 5800 5798 5796 5794 5792 5790 5788 5786 5784 5781 5779 5778 5777 5776 5775 5774 5774 5773
5840 5839 5838 5837 5837 5836 5835 5834 5833 5831 5829 5828 5826 5824 5822 5819 5817 5815 5812 5810 5808 5805 5803 5800 5797 5795 5793 5791 5789 5786 5784 5782 5780 5778 5776 5774 5772 5770 5769 5768 5767 5767 5766
5835 5834 5834 5833 5832 5831 5830 5830 5828 5827 5825 5823 5821 5818 5816 5813 5812 5809 5807 5805 5802 5800 5798 5795 5792 5790 5788 5785 5783 5781 5779 5777 5774 5772 5770 5768 5767 5765 5763 5762 5760 5759 5758
5830 5830 5828 5828 5827 5826 5825 5825 5824 5823 5820 5818 5815 5812 5811 5808 5806 5804 5802 5800 5797 5794 5792 5790 5787 5784 5782 5780 5778 5775 5773 5771 5769 5766 5764 5762 5760 5758 5757 5755 5753 5752 5751
5825 5824 5823 5822 5822 5821 5821 5820 5819 5817 5815 5813 5811 5808 5806 5804 5801 5799 5797 5795 5792 5790 5787 5785 5782 5779 5777 5774 5772 5769 5767 5765 5763 5760 5758 5756 5754 5752 5750 5749 5747 5745 5743
5820 5819 5818 5818 5817 5817 5816 5815 5813 5812 5810 5808 5806 5804 5801 5799 5797 5794 5791 5789 5787 5784 5782 5779 5776 5774 5771 5769 5766 5763 5761 5759 5756 5754 5752 5750 5747 5745 5743 5742 5740 5738 5736
5815 5814 5814 5813 5812 5812 5811 5810 5808 5807 5805 5803 5801 5799 5796 5793 5790 5788 5785 5783 5781 5779 5776 5773 5771 5768 5765 5762 5760 5757 5755 5753 5751 5748 5746 5743 5741 5738 5736 5734 5732 5730 5729
5810 5810 5809 5808 5808 5807 5806 5805 5804 5802 5800 5798 5796 5793 5790 5787 5785 5782 5780 5778 5775 5773 5770 5767 5764 5762 5759 5757 5754 5752 5749 5747 5745 5742 5739 5737 5734 5732 5729 5727 5725 5724 5722
5806 5805 5804 5804 5803 5803 5801 5800 5799 5797 5795 5793 5790 5787 5785 5783 5780 5778 5775 5773 5770 5768 5765 5762 5759 5756 5753 5751 5748 5746 5744 5741 5738 5736 5733 5730 5728 5725 5723 5721 5719 5717 5716
5801 5800 5799 5799 5798 5797 5796 5795 5794 5792 5790 5788 5785 5783 5780 5778 5776 5773 5771 5768 5765 5763 5760 5757 5754 5751 5749 5746 5743 5741 5738 5735 5732 5730 5727 5724 5722 5719 5717 5715 5713 5711 5709
5796 5795 5795 5794 5793 5792 5791 5790 5788 5787 5785 5782 5780 5778 5776 5773 5771 5768 5766 5763 5760 5758 5755 5752 5749 5746 5744 5741 5738 5736 5733 5730 5726 5723 5721 5718 5716 5713 5711 5709 5706 5704 5702
5791 5790 5789 5789 5788 5787 5786 5785 5784 5782 5780 5778 5775 5773 5771 5769 5766 5764 5761 5759 5756 5753 5750 5747 5744 5742 5739 5736 5733 5731 5728 5724 5721 5718 5715 5712 5710 5707 5705 5702 5700 5698 5696
5786 5785 5784 5784 5783 5782 5781 5780 5778 5777 5775 5773 5771 5769 5767 5764 5762 5759 5757 5754 5751 5749 5746 5743 5740 5737 5734 5731 5728 5725 5722 5719 5715 5712 5709 5706 5704 5701 5699 5696 5694 5692 5690
5781 5780 5779 5778 5778 5777 5776 5775 5773 5772 5770 5768 5766 5764 5762 5760 5757 5755 5753 5750 5747 5745 5742 5739 5735 5732 5729 5727 5723 5720 5716 5713 5709 5706 5703 5701 5698 5696 5693 5690 5688 5686 5684
5777 5775 5774 5774 5773 5772 5771 5770 5769 5768 5766 5764 5762 5760 5758 5756 5753 5750 5748 5746 5743 5741 5738 5735 5732 5728 5725 5722 5719 5715 5712 5708 5704 5701 5698 5696 5693 5690 5687 5685 5682 5680 5677
5772 5771 5770 5770 5769 5768 5767 5766 5765 5763 5762 5760 5758 5756 5754 5752 5749 5747 5745 5742 5740 5737 5735 5732 5728 5725 5721 5718 5714 5711 5707 5704 5700 5697 5694 5691 5688 5685 5682 5679 5677 5674 5672
5768 5767 5766 5766 5765 5764 5763 5762 5761 5759 5758 5756 5754 5752 5750 5748 5746 5743 5742 5739 5737 5734 5731 5728 5725 5721 5718 5714 5711 5707 5703 5699 5696 5693 5690 5687 5683 5680 5677 5674 5671 5669 5666
5765 5764 5763 5762 5761 5760 5759 5758 5757 5756 5754 5753 5751 5749 5747 5745 5743 5740 5738 5736 5734 5731 5728 5725 5721 5718 5714 5711 5707 5703 5699 5695 5691 5688 5685 5682 5679 5675 5672 5669 5666 5663 5660
5761 5760 5759 5758 5757 5756 5755 5754 5753 5752 5751 5749 5748 5746 5744 5742 5740 5738 5735 5733 5731 5728 5725 5721 5718 5715 5711 5707 5703 5699 5695 5691 5687 5684 5681 5677 5674 5671 5668 5664 5661 5658 5655
5757 5756 5755 5754 5753 5752 5751 5750 5749 5749 5748 5746 5745 5743 5741 5739 5737 5734 5732 5730 5728 5725 5722 5718 5715 5712 5708 5704 5700 5696 5692 5688 5684 5680 5676 5673 5670 5666 5662 5659 5656 5653 5650
5754 5753 5752 5750 5749 5748 5748 5747 5746 5746 5745 5743 5742 5740 5738 5736 5734 5732 5729 5727 5725 5722 5719 5715 5712 5708 5705 5701 5697 5693 5688 5684 5680 5676 5672 5668 5664 5661 5657 5654 5650 5647 5644
5751 5750 5749 5748 5747 5746 5745 5745 5744 5743 5742 5741 5739 5738 5736 5733 5731 5729 5727 5725 5722 5720 5716 5713 5709 5706 5702 5698 5694 5689 5685 5680 5676 5672 5668 5663 5659 5655 5651 5648 5645 5642 5639
5748 5747 5746 5745 5745 5744 5743 5743 5742 5741 5740 5738 5737 5736 5734 5732 5729 5727 5725 5723 5720 5717 5713 5710 5706 5703 5699 5695 5691 5686 5681 5676 5672 5667 5663 5658 5654 5650 5647 5643 5639 5636 5633
5745 5745 5744 5743 5742 5742 5741 5741 5740 5739 5737 5736 5735 5733 5731 5729 5727 5725 5723 5720 5717 5714 5711 5707 5704 5700 5696 5692 5687 5683 5678 5673 5668 5664 5659 5655 5650 5646 5642 5638 5634 5630 5627
5742 5742 5741 5741 5740 5740 5739 5738 5737 5736 5735 5734 5732 5731 5729 5727 5725 5723 5720 5717 5714 5711 5708 5704 5701 5697 5693 5688 5684 5679 5674 5669 5664 5660 5655 5650 5646 5642 5637 5633 5629 5626 5622
5740 5739 5739 5738 5738 5737 5737 5736 5735 5734 5733 5731 5730 5728 5726 5724 5722 5720 5718 5714 5711 5708 5705 5701 5697 5694 5690 5685 5680 5676 5671 5666 5661 5656 5651 5646 5641 5637 5633 5628 5624 5620 5616